星链-1679 (STARLINK-1679 )

导读 | 豆包AI

STARLINK-1679是美国太空探索技术公司(SpaceX)星链(Starlink)项目中的一颗卫星,于2020年10月6日发射入轨。星链项目旨在构建全球卫星互联网星座,为全球偏远地区及网络覆盖薄弱区域提供高速互联网接入服务。STARLINK-1679作为星链星座组网的一员,遵循星链卫星设计标准,运行在近地轨道,助力实现全球覆盖的卫星通信网络建设,推动全球互联基础设施的发展。

基本信息
目录编号:
46557
目录名称:
STARLINK-1679
国际标识:
2020-070AB
轨道中心:
EARTH
卫星名称:
星链-1679
卫星全名:
星链-1679 (STARLINK-1679 )
卫星状态:
在轨 (已飞行2032 天)
发射日期:
2020-10-06 UTC
国别 :
美国 (US)
星等 :
--
轨道信息
数据来源 国际轨道数据 AOE轨道数据
星历时间 2026-04-30T08:42:35+0800
8小时前
查看轨道信息
2026-04-24T14:00:00+0800
6天前
查看轨道信息
半长轴 6740.295km 6743.819km
偏心率 0.0006605 0.0005382
轨道倾角 53.043° 53.040°
近地点辐角 346.892° 330.181°
升交点赤经 232.581° 261.093°
平近点角 13.192° 140.344°
近地点 357.706km 362.052km
远地点 366.61km 369.312km
周期 91.786分钟 91.858分钟
每日圈数 15.68861 15.676314
详细信息
固有亮度:
5
最大亮度:
2.5
卫星平台:
Starlink V1.0
覆盖范围:
全球
运营商:
太空探索技术公司
运营商所在国:
美国
制造商(研发单位):
太空探索技术公司
制造商所在国:
美国
使用方式:
暂无
卫星简介
星链(Starlink)计划是由太空探索技术公司(SpaceX)提出的一个巨型低轨卫星互联网星座项目,计划在2019年至2024年间在太空搭建由约1.2万颗卫星组成的“星链”网络,其中1584颗将部署在地球上空550千米处的近地轨道,并从2020年开始工作。该卫星仍在工作。
2D轨道图
3D轨道图
轨道高度分析图
轨道倾角分析图
轨道综合分析图
查看轨道综合分析图